SCP
-0 -0 0 0 0 0 0 0 0 0 0 0 0 0 0 0 0 -0 -0 0 0 0 0 -0 -0 -0 -0 -0 -0 0 0 0 -0 -0 -0 0 0 0 0 -0 -0 -0 -0 -0 -0 -0 0 0 0
0 0 0 0 0 0 0 0 -0 -0 0 0 0 0 0 -0 -0 -0 0 0 0 0 -0 0 -0 -0 -0 -0 0 -0 0 0 -0 -0 0 0 0 0 -0 -0 -0 -0 -0 -0 -0 -0 -0 -0 0
0 0 -0 0 0 0 0 -0 0 0 -0 -0 -0 0 0 0 -0 -0 0 0 0 0 0 0 0 0 -0 -0 0 0 -0 -0 -0 -0 -0 0 0 0 0 0 -0 -0 -0 -0 -0 0 0 0 0
0 0 0 0 0 -0 0 -0 0 0 0 0 0 0 0 0 -0 0 0 0 0 0 0 0 0 0 0 0 0 0 -0 0 0 0 0 -0 0 -0 -0 -0 -0 -0 -0 -0 -0 0 0 0 0
0 0 0 0 0 0 0 0 0 -0 -0 -0 0 -0 0 0 0 0 0 0 -0 0 0 0 0 0 0 0 0 0 -0 -0 -0 -0 -0 -0 -0 -0 -0 -0 -0 -0 0 0 0 0 0 0 0
0 0 0 0 0 0 0 0 0 0 0 0 0 0 0 0 0 0 0 0 0 0 0 0 0 0 0 0 0 0 0 -0 -0 -0 -0 -0 -0 -0 -0 -0 0 0 0 0 0 0 0 0 0
0 0 0 0 -0 -0 0 -0 -0 0 0 -0 0 0 0 0 0 0 0 0 0 0 0 0 0 0 0 0 0 0 0 0 0 -0 -0 -0 -0 -0 -0 0 0 0 0 0 0 0 0 0 0
0 0 0 0 0 -0 0 -0 -0 -0 0 0 0 0 0 0 0 0 0 0 0 0 0 0 0 0 0 0 0 0 0 0 0 0 0 0 -0 0 0 0 0 0 0 0 0 0 0 0 0
0 0 0 0 0 0 0 0 0 0 0 0 0 0 0 0 0 0 0 0 0 0 0 0 0 0 0 0 0 0 0 0 0 0 0 0 0 0 0 0 0 0 0 0 0 0 0 0 0
0 0 0 0 0 0 0 -0 0 0 -0 -0 0 0 0 0 0 0 0 0 0 0 0 0 0 0 0 0 0 0 0 0 0 0 0 0 0 0 0 0 0 0 0 0 0 0 0 0 0
0 0 0 0 0 0 0 0 0 -0 0 0 0 0 0 0 0 0 0 0 0 0 0 0 0 0 0 0 0 0 0 0 0 0 0 0 0 0 0 0 0 0 0 0 0 0 0 0 0
0 0 0 0 0 0 0 0 0 0 0 0 0 0 0 0 0 0 0 0 0 0 0 0 0 0 0 0 0 0 0 0 0 0 0 0 0 0 0 0 0 0 0 0 0 0 0 0 0
0 0 0 0 0 0 0 0 0 0 0 0 0 0 0 0 0 0 0 0 0 0 0 0 0 0 0 0 0 0 0 0 0 0 0 0 0 0 0 0 0 0 0 0 0 0 0 0 0
0 0 0 0 0 0 0 0 0 0 0 0 0 0 0 0 0 0 0 0 0 0 0 0 0 0 0 0 0 0 0 0 0 0 0 0 0 0 0 0 0 0 0 0 0 0 0 0 0
0 0 0 0 0 0 0 0 0 0 0 0 0 0 0 0 0 0 0 0 0 0 0 0 0 0 0 0 0 0 0 0 0 0 0 0 0 0 0 0 0 0 0 0 0 0 0 0 0
0 0 0 0 0 0 0 0 0 0 0 0 0 0 0 0 0 0 0 0 0 0 0 0 0 0 0 0 0 0 0 0 0 0 0 0 0 0 0 0 0 0 0 0 0 0 0 0 0
0 0 0 0 0 0 0 0 0 0 0 0 0 0 0 0 0 0 0 0 0 0 0 0 0 0 0 0 0 0 0 0 0 0 0 0 0 0 0 0 0 0 0 0 0 0 0 0 0
0 0 0 0 0 0 0 0 0 0 0 0 0 0 0 0 0 0 0 0 0 0 0 0 0 0 0 0 0 0 0 0 0 0 0 0 0 0 0 0 0 0 0 0 0 0 0 0 0
0 0 0 0 0 0 0 0 0 0 0 0 0 0 0 0 0 0 0 0 0 0 0 0 0 0 0 0 0 0 0 0 0 0 0 0 0 0 0 0 0 0 0 0 0 0 0 0 0
0 0 0 0 0 0 0 0 0 0 0 0 0 0 0 0 0 0 0 0 0 0 0 0 0 0 0 0 0 0 0 0 0 0 0 0 0 0 0 0 0 0 0 0 0 0 0 0 0
0 0 0 0 0 0 0 -0 0 0 0 0 0 0 0 0 0 0 0 0 0 0 0 0 0 0 0 0 0 0 0 0 0 0 0 0 0 0 0 0 0 0 0 0 0 0 0 0 0
0 0 0 0 0 0 0 -0 0 0 0 0 0 0 0 0 0 0 0 0 0 0 0 0 0 0 0 0 0 0 0 0 0 0 0 0 0 0 0 0 0 0 0 0 0 0 0 0 0
0 0 0 0 0 0 0 0 -0 -0 0 0 0 0 0 0 0 0 0 0 0 0 0 0 0 0 0 0 0 0 0 0 0 0 0 0 0 0 0 0 0 0 0 0 0 0 0 0 0
0 0 0 0 0 0 0 0 -0 0 0 0 0 0 0 0 0 0 0 0 0 0 0 0 0 0 0 0 0 0 0 0 0 0 0 0 0 0 0 0 0 0 0 0 0 0 0 0 0
0 0 0 0 0 0 0 0 0 0 0 0 0 0 0 0 0 0 0 0 0 0 0 0 0 0 0 0 0 0 0 0 0 0 0 0 0 0 0 0 0 0 0 0 0 0 0 0 0
0 0 0 0 0 0 0 0 0 0 0 0 0 0 0 0 0 0 0 0 0 0 0 0 0 0 0 0 0 0 0 0 0 0 0 0 0 0 0 0 0 0 0 0 0 0 0 0 0
0 0 0 0 0 0 0 0 0 0 0 0 0 0 0 0 0 0 0 0 0 0 0 0 0 0 0 0 0 0 0 0 0 0 0 0 0 0 0 0 0 0 0 0 0 0 0 0 0
0 0 0 0 0 0 0 0 0 0 0 0 0 0 0 0 0 0 0 0 0 0 0 0 0 0 0 0 0 0 0 0 0 0 0 0 0 0 0 0 0 0 0 0 0 0 0 0 0
0 0 0 0 0 0 0 0 0 0 0 0 0 0 0 0 0 0 0 -0 0 0 0 0 0 0 0 0 0 0 0 0 0 0 0 0 0 0 0 0 0 0 0 0 0 0 0 0 0
0 0 0 0 0 0 0 0 0 0 0 0 0 0 0 0 0 0 0 0 0 0 0 0 0 0 0 0 0 0 0 0 0 0 0 0 0 0 0 0 0 0 0 0 0 0 0 0 0
Wind_Speed_500mb
21 9 6 7 4 8 6 7 19 16 11 10 20 18 12 32 11 11 34 28 31 36 37 30 24 18 16 15 19 24 25 26 22 17 17 14 12 11 13 13 22 22 21 21 23 26 26 27 27
25 2 5 13 6 7 8 19 12 10 30 16 16 1 4 11 15 34 39 28 27 37 36 32 28 19 18 15 17 19 22 22 18 12 9 11 12 11 11 9 18 18 18 18 19 22 23 24 25
32 3 10 7 5 8 7 10 15 30 18 13 11 6 10 10 16 43 28 39 28 33 35 32 27 22 17 16 17 20 22 21 18 13 8 7 10 12 11 6 11 13 12 14 14 17 17 19 20
19 10 16 7 7 9 11 7 37 22 8 2 6 19 15 20 23 30 43 44 29 33 33 28 23 21 18 16 16 17 20 18 15 11 9 8 8 11 10 7 4 6 6 8 11 12 12 13 14
21 13 9 10 15 10 4 13 22 16 23 20 5 15 17 22 22 24 53 47 32 37 29 28 24 20 20 18 17 17 17 16 14 10 4 9 8 8 8 8 6 3 1 5 6 5 6 8 9
16 10 10 8 17 14 10 6 6 11 15 21 3 6 14 15 24 37 47 43 35 33 32 31 27 23 19 19 19 18 19 21 18 11 7 6 11 10 8 7 6 6 5 2 1 1 1 3 5
13 8 12 10 13 10 11 16 5 6 16 12 2 2 21 23 27 37 44 42 33 27 33 30 26 25 23 21 22 21 19 19 21 22 17 12 9 8 8 8 8 8 7 7 7 7 7 7 7
14 8 15 7 3 7 17 19 17 12 4 13 12 5 18 31 36 38 40 37 40 33 31 29 28 24 22 22 23 22 19 17 15 20 20 18 7 5 6 7 6 7 9 10 11 11 12 12 13
11 7 11 9 2 10 28 13 8 10 9 10 9 4 18 36 36 45 42 35 47 43 37 32 28 28 25 23 23 23 23 22 20 21 20 18 14 12 12 10 9 7 9 11 13 14 16 16 17
5 7 17 14 17 9 24 20 26 8 15 13 16 13 26 31 38 50 52 49 46 46 32 32 37 27 25 25 27 26 26 25 25 24 24 23 20 16 18 14 12 14 15 15 15 17 17 19 20
7 11 20 31 11 11 2 18 17 19 12 25 39 32 36 33 39 46 51 50 44 37 51 46 41 31 31 29 29 30 30 28 28 29 29 27 27 28 29 26 22 21 21 19 19 20 19 20 20
15 30 29 28 17 8 12 11 16 20 16 5 23 43 40 41 42 47 54 56 56 52 48 53 46 44 39 36 37 32 34 31 33 32 32 32 33 34 30 28 27 24 23 21 22 24 25 25 26
11 18 33 19 13 15 22 16 16 19 30 16 13 18 34 37 42 43 40 43 41 46 42 46 50 54 48 45 40 38 34 34 34 36 37 38 37 35 34 31 30 30 28 27 25 26 28 29 29
11 13 24 18 14 17 9 22 29 15 33 20 20 23 30 32 37 39 47 46 48 45 47 47 46 51 56 56 51 45 41 41 39 40 40 39 39 39 38 36 37 35 34 33 32 30 31 32 33
10 11 13 16 19 15 4 16 21 31 25 26 33 26 31 35 36 41 42 54 55 53 47 50 46 47 52 54 55 51 50 44 49 44 46 45 42 43 44 42 41 37 35 36 34 34 33 35 34
7 9 5 14 30 12 13 15 20 42 35 37 28 35 35 36 37 40 39 38 48 50 56 53 53 49 50 54 54 54 52 50 47 47 48 52 53 47 47 46 43 39 37 36 36 34 35 34 34
11 7 16 14 33 13 16 10 22 47 29 46 40 37 38 40 40 40 42 44 43 47 49 53 57 55 51 53 54 54 52 52 46 45 49 45 46 50 51 48 44 41 40 39 38 36 35 35 35
12 12 14 15 7 9 13 18 23 39 16 27 24 32 40 42 47 40 40 45 48 49 52 53 55 57 52 52 54 56 55 56 55 52 50 48 49 44 46 48 47 44 43 42 40 39 37 37 35
16 13 11 11 10 2 15 19 26 39 41 36 34 35 44 49 42 44 44 44 47 52 55 59 61 61 60 60 62 63 64 60 59 59 57 52 51 49 48 48 49 48 48 46 42 38 38 40 40
17 18 15 16 13 4 11 26 27 26 25 46 50 48 48 51 46 49 45 50 54 60 66 68 69 67 66 66 68 66 64 64 61 60 61 59 54 52 50 50 49 50 50 48 43 40 41 41 40
17 19 14 13 4 10 11 23 25 26 56 58 59 64 56 54 58 61 58 66 65 72 76 75 74 74 74 70 67 68 67 64 64 67 64 63 60 58 55 53 52 50 52 50 43 41 39 38 37
15 12 20 12 11 5 9 14 12 16 16 27 61 56 68 70 67 75 69 68 71 77 79 81 83 79 77 75 75 77 77 77 75 70 63 60 60 63 61 59 56 55 54 48 42 40 38 37 38
9 10 8 3 7 11 12 11 13 21 16 13 25 58 64 63 63 69 72 76 66 56 55 67 71 75 77 79 81 82 80 78 73 70 69 65 64 63 64 62 58 59 54 49 43 42 42 39 37
6 7 3 1 5 11 17 15 16 19 18 15 25 43 45 45 49 47 49 46 51 57 63 66 54 66 69 74 78 84 83 80 77 72 68 64 66 65 62 62 61 57 55 52 47 44 42 42 39
12 11 3 4 5 14 10 18 31 15 22 13 14 21 22 27 29 34 39 45 51 51 54 67 73 74 73 77 79 87 86 75 72 69 70 69 73 69 63 59 60 57 54 53 50 48 46 43 39
22 22 8 12 9 5 8 16 12 4 13 19 21 32 25 22 20 28 29 44 43 37 36 40 47 54 58 66 74 82 83 82 79 73 70 71 73 69 59 54 54 52 52 52 50 49 44 38 35
12 22 20 11 4 3 10 13 13 12 11 23 36 21 16 27 31 31 31 34 28 33 36 41 44 53 57 53 59 60 72 76 73 69 64 65 61 57 54 50 46 48 53 53 49 42 39 36 31
13 10 8 8 7 8 11 13 13 5 13 17 10 16 23 16 15 25 27 28 32 28 30 30 29 29 36 40 49 56 57 61 61 61 62 60 58 56 51 43 45 49 49 46 42 40 36 33 30
12 15 5 5 11 7 5 9 4 14 11 17 16 15 19 17 18 20 18 16 17 19 18 19 20 22 26 30 39 47 48 52 58 59 60 58 56 50 46 46 47 47 45 43 41 37 34 31 29
24 25 30 12 14 14 24 20 6 13 10 14 4 9 18 14 15 23 20 13 8 7 16 22 24 24 24 23 25 30 34 36 38 40 42 44 44 46 46 46 45 44 43 42 40 36 33 30 27
Wind_Direction_500mb
356 16 129 274 272 226 110 84 94 92 118 67 70 34 31 48 20 105 137 172 171 164 158 153 152 147 135 125 139 147 151 140 134 121 109 134 141 118 94 96 95 92 89 85 76 77 74 72 70
3 139 213 265 243 277 98 111 134 129 91 110 108 233 311 87 68 135 147 165 172 161 161 153 148 146 147 142 145 152 164 168 163 155 134 114 147 148 142 124 102 95 90 88 85 81 77 72 67
341 246 257 220 231 18 42 129 128 87 116 144 123 64 24 88 112 145 155 156 177 166 161 159 159 157 160 161 157 161 167 178 183 185 177 157 161 162 165 143 116 111 99 88 82 81 76 70 66
320 233 257 256 66 62 11 189 110 120 105 75 44 104 97 89 134 170 154 153 180 170 178 167 172 171 167 178 169 172 171 168 173 187 209 183 149 141 160 168 139 124 107 83 84 77 70 66 64
304 267 257 231 89 99 352 56 120 154 160 164 177 144 108 129 159 178 152 156 184 172 179 178 180 184 181 183 179 179 179 164 180 183 181 190 176 163 161 169 181 197 147 84 87 84 57 49 45
295 260 284 315 100 103 108 91 164 173 138 94 141 278 106 166 166 159 156 159 175 186 182 181 183 184 188 188 189 191 190 171 178 186 185 218 194 194 187 196 204 220 242 267 231 258 341 3 7
331 328 291 335 107 142 132 156 201 196 112 162 63 13 136 150 161 164 159 167 175 202 184 183 186 187 191 192 194 200 198 194 188 183 193 204 192 198 206 214 225 228 239 261 273 277 282 293 303
309 295 287 257 312 122 125 162 169 184 120 133 135 357 158 164 169 164 160 185 177 200 200 190 191 196 199 200 198 200 205 209 202 204 198 197 190 201 195 210 226 252 261 265 270 278 283 286 291
303 275 282 284 24 101 138 159 179 184 120 155 183 35 138 169 174 161 170 184 188 200 202 194 203 198 204 206 207 206 207 207 208 209 208 219 235 236 243 244 242 250 262 268 270 274 278 282 285
263 289 276 23 7 25 154 208 157 167 198 172 160 187 160 179 175 171 178 189 211 203 195 208 194 206 210 214 210 214 216 214 214 216 219 225 235 253 256 247 253 267 271 270 276 280 282 279 281
253 239 291 322 20 31 291 206 201 190 203 198 191 203 178 189 188 187 190 198 214 215 186 201 196 204 215 214 223 220 223 224 223 224 228 229 231 229 243 256 263 267 271 277 279 280 286 286 279
263 266 276 300 2 0 289 242 253 223 240 123 208 209 193 197 200 198 199 200 198 220 216 212 206 197 215 221 232 224 231 227 232 232 233 234 231 238 245 248 258 259 265 273 280 289 296 294 289
214 268 285 286 303 303 288 291 260 240 242 244 205 170 201 206 207 210 222 213 215 217 223 221 218 212 209 216 229 230 225 237 236 237 238 238 240 244 249 252 254 261 268 273 276 279 281 284 285
10 307 281 271 282 261 248 268 257 240 244 228 209 194 205 213 220 215 214 210 211 225 217 230 224 223 218 224 225 228 227 226 240 238 244 245 245 246 248 249 251 255 262 268 274 277 279 281 283
296 298 258 238 246 270 299 259 250 236 263 233 215 208 214 223 214 231 222 216 215 216 224 227 232 226 226 227 230 232 235 233 239 241 241 246 245 244 248 250 253 257 259 265 267 271 272 275 280
221 221 244 206 207 207 166 264 246 235 233 243 232 228 220 219 225 226 230 233 224 222 222 222 234 232 229 230 232 234 236 240 241 244 239 243 249 249 245 249 253 256 257 259 262 266 272 279 284
200 265 219 268 182 175 179 269 256 251 252 233 239 235 228 222 225 226 222 224 226 226 231 227 228 238 232 234 236 238 241 243 244 244 249 246 241 244 249 249 251 251 252 254 259 265 271 277 280
224 215 240 256 159 215 241 245 273 281 289 264 260 258 255 233 226 229 228 226 225 226 228 234 234 237 237 235 238 241 241 240 245 248 246 247 252 248 245 245 248 249 251 254 256 260 264 267 271
294 300 296 235 81 102 245 254 263 261 261 251 248 246 254 256 248 231 230 238 234 228 226 230 236 237 237 238 239 237 241 242 244 248 253 251 249 251 249 247 244 245 251 255 257 260 264 266 271
258 279 270 289 114 101 287 276 275 271 250 244 253 253 247 251 254 245 229 231 232 236 235 235 234 238 240 240 242 246 250 252 252 251 248 249 251 250 249 247 244 244 246 251 256 257 260 267 272
249 241 258 258 317 198 262 273 240 247 243 246 244 246 250 251 250 248 244 238 237 239 240 240 239 240 243 244 244 244 244 246 246 246 247 249 247 248 249 248 245 241 245 249 253 255 257 264 274
261 242 249 286 342 255 47 296 304 298 267 234 239 243 247 247 245 246 244 246 246 244 247 248 245 243 243 246 244 242 243 242 245 249 253 252 245 244 246 246 243 242 245 247 245 249 254 260 270
239 7 3 207 241 301 273 274 253 223 273 273 207 227 241 246 249 251 253 252 250 255 255 253 252 248 243 238 243 246 246 247 249 247 252 254 254 249 246 244 242 240 242 249 248 244 252 263 270
113 141 89 250 228 253 204 220 235 236 227 238 233 233 250 264 268 262 261 258 252 252 250 253 251 243 243 243 241 243 247 249 248 248 248 250 250 250 249 242 237 238 240 243 246 249 252 263 263
163 177 170 207 184 240 200 204 246 301 291 268 273 275 266 277 268 257 253 258 265 262 255 252 252 252 251 250 248 244 247 248 247 248 245 241 247 248 251 241 237 238 239 241 245 248 254 254 253
198 204 181 210 195 290 120 227 247 112 333 301 274 270 272 260 275 283 274 288 281 274 276 264 256 256 254 254 248 243 247 247 248 247 244 244 246 250 250 243 239 237 238 239 241 245 247 251 260
174 222 240 313 108 54 244 276 300 254 237 272 278 297 292 285 289 290 285 289 280 264 272 274 267 261 258 256 246 248 245 245 245 244 243 245 247 247 243 239 236 231 231 234 237 237 241 247 255
180 157 186 219 215 236 253 255 246 210 243 240 329 21 10 354 296 292 288 281 258 272 286 284 276 264 257 254 242 249 251 246 244 242 242 242 243 243 242 239 230 228 227 227 229 233 238 243 249
217 230 235 299 211 209 271 239 91 106 98 76 39 19 341 330 318 311 306 286 266 277 296 309 305 284 267 251 239 241 242 238 238 241 241 240 238 237 232 228 224 221 221 223 228 231 233 238 243
228 226 208 218 210 231 251 247 108 127 114 100 94 315 325 322 341 338 329 316 316 11 21 1 342 321 306 284 260 246 240 236 233 231 229 229 229 228 226 222 218 220 224 226 227 229 231 233 237
Wind_Speed_850mb
21 9 6 7 4 8 6 7 19 16 11 10 20 18 12 32 11 11 34 28 31 36 37 30 24 18 16 15 19 24 25 26 22 17 17 14 12 11 13 13 22 22 21 21 23 26 26 27 27
25 2 5 13 6 7 8 19 12 10 30 16 16 1 4 11 15 34 39 28 27 37 36 32 28 19 18 15 17 19 22 22 18 12 9 11 12 11 11 9 18 18 18 18 19 22 23 24 25
32 3 10 7 5 8 7 10 15 30 18 13 11 6 10 10 16 43 28 39 28 33 35 32 27 22 17 16 17 20 22 21 18 13 8 7 10 12 11 6 11 13 12 14 14 17 17 19 20
19 10 16 7 7 9 11 7 37 22 8 2 6 19 15 20 23 30 43 44 29 33 33 28 23 21 18 16 16 17 20 18 15 11 9 8 8 11 10 7 4 6 6 8 11 12 12 13 14
21 13 9 10 15 10 4 13 22 16 23 20 5 15 17 22 22 24 53 47 32 37 29 28 24 20 20 18 17 17 17 16 14 10 4 9 8 8 8 8 6 3 1 5 6 5 6 8 9
16 10 10 8 17 14 10 6 6 11 15 21 3 6 14 15 24 37 47 43 35 33 32 31 27 23 19 19 19 18 19 21 18 11 7 6 11 10 8 7 6 6 5 2 1 1 1 3 5
13 8 12 10 13 10 11 16 5 6 16 12 2 2 21 23 27 37 44 42 33 27 33 30 26 25 23 21 22 21 19 19 21 22 17 12 9 8 8 8 8 8 7 7 7 7 7 7 7
14 8 15 7 3 7 17 19 17 12 4 13 12 5 18 31 36 38 40 37 40 33 31 29 28 24 22 22 23 22 19 17 15 20 20 18 7 5 6 7 6 7 9 10 11 11 12 12 13
11 7 11 9 2 10 28 13 8 10 9 10 9 4 18 36 36 45 42 35 47 43 37 32 28 28 25 23 23 23 23 22 20 21 20 18 14 12 12 10 9 7 9 11 13 14 16 16 17
5 7 17 14 17 9 24 20 26 8 15 13 16 13 26 31 38 50 52 49 46 46 32 32 37 27 25 25 27 26 26 25 25 24 24 23 20 16 18 14 12 14 15 15 15 17 17 19 20
7 11 20 31 11 11 2 18 17 19 12 25 39 32 36 33 39 46 51 50 44 37 51 46 41 31 31 29 29 30 30 28 28 29 29 27 27 28 29 26 22 21 21 19 19 20 19 20 20
15 30 29 28 17 8 12 11 16 20 16 5 23 43 40 41 42 47 54 56 56 52 48 53 46 44 39 36 37 32 34 31 33 32 32 32 33 34 30 28 27 24 23 21 22 24 25 25 26
11 18 33 19 13 15 22 16 16 19 30 16 13 18 34 37 42 43 40 43 41 46 42 46 50 54 48 45 40 38 34 34 34 36 37 38 37 35 34 31 30 30 28 27 25 26 28 29 29
11 13 24 18 14 17 9 22 29 15 33 20 20 23 30 32 37 39 47 46 48 45 47 47 46 51 56 56 51 45 41 41 39 40 40 39 39 39 38 36 37 35 34 33 32 30 31 32 33
10 11 13 16 19 15 4 16 21 31 25 26 33 26 31 35 36 41 42 54 55 53 47 50 46 47 52 54 55 51 50 44 49 44 46 45 42 43 44 42 41 37 35 36 34 34 33 35 34
7 9 5 14 30 12 13 15 20 42 35 37 28 35 35 36 37 40 39 38 48 50 56 53 53 49 50 54 54 54 52 50 47 47 48 52 53 47 47 46 43 39 37 36 36 34 35 34 34
11 7 16 14 33 13 16 10 22 47 29 46 40 37 38 40 40 40 42 44 43 47 49 53 57 55 51 53 54 54 52 52 46 45 49 45 46 50 51 48 44 41 40 39 38 36 35 35 35
12 12 14 15 7 9 13 18 23 39 16 27 24 32 40 42 47 40 40 45 48 49 52 53 55 57 52 52 54 56 55 56 55 52 50 48 49 44 46 48 47 44 43 42 40 39 37 37 35
16 13 11 11 10 2 15 19 26 39 41 36 34 35 44 49 42 44 44 44 47 52 55 59 61 61 60 60 62 63 64 60 59 59 57 52 51 49 48 48 49 48 48 46 42 38 38 40 40
17 18 15 16 13 4 11 26 27 26 25 46 50 48 48 51 46 49 45 50 54 60 66 68 69 67 66 66 68 66 64 64 61 60 61 59 54 52 50 50 49 50 50 48 43 40 41 41 40
17 19 14 13 4 10 11 23 25 26 56 58 59 64 56 54 58 61 58 66 65 72 76 75 74 74 74 70 67 68 67 64 64 67 64 63 60 58 55 53 52 50 52 50 43 41 39 38 37
15 12 20 12 11 5 9 14 12 16 16 27 61 56 68 70 67 75 69 68 71 77 79 81 83 79 77 75 75 77 77 77 75 70 63 60 60 63 61 59 56 55 54 48 42 40 38 37 38
9 10 8 3 7 11 12 11 13 21 16 13 25 58 64 63 63 69 72 76 66 56 55 67 71 75 77 79 81 82 80 78 73 70 69 65 64 63 64 62 58 59 54 49 43 42 42 39 37
6 7 3 1 5 11 17 15 16 19 18 15 25 43 45 45 49 47 49 46 51 57 63 66 54 66 69 74 78 84 83 80 77 72 68 64 66 65 62 62 61 57 55 52 47 44 42 42 39
12 11 3 4 5 14 10 18 31 15 22 13 14 21 22 27 29 34 39 45 51 51 54 67 73 74 73 77 79 87 86 75 72 69 70 69 73 69 63 59 60 57 54 53 50 48 46 43 39
22 22 8 12 9 5 8 16 12 4 13 19 21 32 25 22 20 28 29 44 43 37 36 40 47 54 58 66 74 82 83 82 79 73 70 71 73 69 59 54 54 52 52 52 50 49 44 38 35
12 22 20 11 4 3 10 13 13 12 11 23 36 21 16 27 31 31 31 34 28 33 36 41 44 53 57 53 59 60 72 76 73 69 64 65 61 57 54 50 46 48 53 53 49 42 39 36 31
13 10 8 8 7 8 11 13 13 5 13 17 10 16 23 16 15 25 27 28 32 28 30 30 29 29 36 40 49 56 57 61 61 61 62 60 58 56 51 43 45 49 49 46 42 40 36 33 30
12 15 5 5 11 7 5 9 4 14 11 17 16 15 19 17 18 20 18 16 17 19 18 19 20 22 26 30 39 47 48 52 58 59 60 58 56 50 46 46 47 47 45 43 41 37 34 31 29
24 25 30 12 14 14 24 20 6 13 10 14 4 9 18 14 15 23 20 13 8 7 16 22 24 24 24 23 25 30 34 36 38 40 42 44 44 46 46 46 45 44 43 42 40 36 33 30 27
Wind_Direction_850mb
356 16 129 274 272 226 110 84 94 92 118 67 70 34 31 48 20 105 137 172 171 164 158 153 152 147 135 125 139 147 151 140 134 121 109 134 141 118 94 96 95 92 89 85 76 77 74 72 70
3 139 213 265 243 277 98 111 134 129 91 110 108 233 311 87 68 135 147 165 172 161 161 153 148 146 147 142 145 152 164 168 163 155 134 114 147 148 142 124 102 95 90 88 85 81 77 72 67
341 246 257 220 231 18 42 129 128 87 116 144 123 64 24 88 112 145 155 156 177 166 161 159 159 157 160 161 157 161 167 178 183 185 177 157 161 162 165 143 116 111 99 88 82 81 76 70 66
320 233 257 256 66 62 11 189 110 120 105 75 44 104 97 89 134 170 154 153 180 170 178 167 172 171 167 178 169 172 171 168 173 187 209 183 149 141 160 168 139 124 107 83 84 77 70 66 64
304 267 257 231 89 99 352 56 120 154 160 164 177 144 108 129 159 178 152 156 184 172 179 178 180 184 181 183 179 179 179 164 180 183 181 190 176 163 161 169 181 197 147 84 87 84 57 49 45
295 260 284 315 100 103 108 91 164 173 138 94 141 278 106 166 166 159 156 159 175 186 182 181 183 184 188 188 189 191 190 171 178 186 185 218 194 194 187 196 204 220 242 267 231 258 341 3 7
331 328 291 335 107 142 132 156 201 196 112 162 63 13 136 150 161 164 159 167 175 202 184 183 186 187 191 192 194 200 198 194 188 183 193 204 192 198 206 214 225 228 239 261 273 277 282 293 303
309 295 287 257 312 122 125 162 169 184 120 133 135 357 158 164 169 164 160 185 177 200 200 190 191 196 199 200 198 200 205 209 202 204 198 197 190 201 195 210 226 252 261 265 270 278 283 286 291
303 275 282 284 24 101 138 159 179 184 120 155 183 35 138 169 174 161 170 184 188 200 202 194 203 198 204 206 207 206 207 207 208 209 208 219 235 236 243 244 242 250 262 268 270 274 278 282 285
263 289 276 23 7 25 154 208 157 167 198 172 160 187 160 179 175 171 178 189 211 203 195 208 194 206 210 214 210 214 216 214 214 216 219 225 235 253 256 247 253 267 271 270 276 280 282 279 281
253 239 291 322 20 31 291 206 201 190 203 198 191 203 178 189 188 187 190 198 214 215 186 201 196 204 215 214 223 220 223 224 223 224 228 229 231 229 243 256 263 267 271 277 279 280 286 286 279
263 266 276 300 2 0 289 242 253 223 240 123 208 209 193 197 200 198 199 200 198 220 216 212 206 197 215 221 232 224 231 227 232 232 233 234 231 238 245 248 258 259 265 273 280 289 296 294 289
214 268 285 286 303 303 288 291 260 240 242 244 205 170 201 206 207 210 222 213 215 217 223 221 218 212 209 216 229 230 225 237 236 237 238 238 240 244 249 252 254 261 268 273 276 279 281 284 285
10 307 281 271 282 261 248 268 257 240 244 228 209 194 205 213 220 215 214 210 211 225 217 230 224 223 218 224 225 228 227 226 240 238 244 245 245 246 248 249 251 255 262 268 274 277 279 281 283
296 298 258 238 246 270 299 259 250 236 263 233 215 208 214 223 214 231 222 216 215 216 224 227 232 226 226 227 230 232 235 233 239 241 241 246 245 244 248 250 253 257 259 265 267 271 272 275 280
221 221 244 206 207 207 166 264 246 235 233 243 232 228 220 219 225 226 230 233 224 222 222 222 234 232 229 230 232 234 236 240 241 244 239 243 249 249 245 249 253 256 257 259 262 266 272 279 284
200 265 219 268 182 175 179 269 256 251 252 233 239 235 228 222 225 226 222 224 226 226 231 227 228 238 232 234 236 238 241 243 244 244 249 246 241 244 249 249 251 251 252 254 259 265 271 277 280
224 215 240 256 159 215 241 245 273 281 289 264 260 258 255 233 226 229 228 226 225 226 228 234 234 237 237 235 238 241 241 240 245 248 246 247 252 248 245 245 248 249 251 254 256 260 264 267 271
294 300 296 235 81 102 245 254 263 261 261 251 248 246 254 256 248 231 230 238 234 228 226 230 236 237 237 238 239 237 241 242 244 248 253 251 249 251 249 247 244 245 251 255 257 260 264 266 271
258 279 270 289 114 101 287 276 275 271 250 244 253 253 247 251 254 245 229 231 232 236 235 235 234 238 240 240 242 246 250 252 252 251 248 249 251 250 249 247 244 244 246 251 256 257 260 267 272
249 241 258 258 317 198 262 273 240 247 243 246 244 246 250 251 250 248 244 238 237 239 240 240 239 240 243 244 244 244 244 246 246 246 247 249 247 248 249 248 245 241 245 249 253 255 257 264 274
261 242 249 286 342 255 47 296 304 298 267 234 239 243 247 247 245 246 244 246 246 244 247 248 245 243 243 246 244 242 243 242 245 249 253 252 245 244 246 246 243 242 245 247 245 249 254 260 270
239 7 3 207 241 301 273 274 253 223 273 273 207 227 241 246 249 251 253 252 250 255 255 253 252 248 243 238 243 246 246 247 249 247 252 254 254 249 246 244 242 240 242 249 248 244 252 263 270
113 141 89 250 228 253 204 220 235 236 227 238 233 233 250 264 268 262 261 258 252 252 250 253 251 243 243 243 241 243 247 249 248 248 248 250 250 250 249 242 237 238 240 243 246 249 252 263 263
163 177 170 207 184 240 200 204 246 301 291 268 273 275 266 277 268 257 253 258 265 262 255 252 252 252 251 250 248 244 247 248 247 248 245 241 247 248 251 241 237 238 239 241 245 248 254 254 253
198 204 181 210 195 290 120 227 247 112 333 301 274 270 272 260 275 283 274 288 281 274 276 264 256 256 254 254 248 243 247 247 248 247 244 244 246 250 250 243 239 237 238 239 241 245 247 251 260
174 222 240 313 108 54 244 276 300 254 237 272 278 297 292 285 289 290 285 289 280 264 272 274 267 261 258 256 246 248 245 245 245 244 243 245 247 247 243 239 236 231 231 234 237 237 241 247 255
180 157 186 219 215 236 253 255 246 210 243 240 329 21 10 354 296 292 288 281 258 272 286 284 276 264 257 254 242 249 251 246 244 242 242 242 243 243 242 239 230 228 227 227 229 233 238 243 249
217 230 235 299 211 209 271 239 91 106 98 76 39 19 341 330 318 311 306 286 266 277 296 309 305 284 267 251 239 241 242 238 238 241 241 240 238 237 232 228 224 221 221 223 228 231 233 238 243
228 226 208 218 210 231 251 247 108 127 114 100 94 315 325 322 341 338 329 316 316 11 21 1 342 321 306 284 260 246 240 236 233 231 229 229 229 228 226 222 218 220 224 226 227 229 231 233 237